CW2059 Weather Reports


Display with metric or nautical units.
time (UTC)temp
F
wind
direction
speed
MPH
gust
MPH
rain 1hr
in
rain 24hr
in
rain mn
in
humidity
%
barometer
mb
20260504034630 58 249 8.0 13.0 0.00 0.00 0.00 48 996.6
20260504033709 58 248 8.0 12.0 0.00 0.00 0.00 48 996.7
20260504032809 59 248 8.0 12.0 0.00 0.00 0.00 48 996.7
20260504031909 59 246 8.0 10.0 0.00 0.00 0.00 48 996.8
20260504031009 59 244 8.0 11.0 0.00 0.00 0.00 47 997.0
20260504030109 60 245 8.0 11.0 0.00 0.00 0.00 46 997.0
20260504025509 61 245 8.0 14.0 0.00 0.00 0.00 45 997.2
20260504024609 62 242 9.0 14.0 0.00 0.00 0.00 44 997.3
20260504023708 63 241 9.0 14.0 0.00 0.00 0.00 43 997.5
20260504022830 63 242 9.0 14.0 0.00 0.00 0.00 41 997.6
20260504021909 64 253 11.0 17.0 0.00 0.00 0.00 40 997.6
20260504021008 65 253 12.0 20.0 0.00 0.00 0.00 39 997.7
20260504020108 66 253 12.0 20.0 0.00 0.00 0.00 38 997.8
20260504015508 66 251 13.0 20.0 0.00 0.00 0.00 37 997.9
20260504014608 67 266 14.0 20.0 0.00 0.00 0.00 36 997.9
20260504013709 68 358 13.0 21.0 0.00 0.00 0.00 36 998.0
20260504012808 68 1 14.0 20.0 0.00 0.00 0.00 35 998.0
20260504011908 69 1 14.0 22.0 0.00 0.00 0.00 34 998.1
20260504011009 69 1 12.0 22.0 0.00 0.00 0.00 35 998.2
20260504010108 69 1 12.0 18.0 0.00 0.00 0.00 34 998.5
20260504005508 69 1 13.0 23.0 0.00 0.00 0.00 34 998.6
20260504004608 70 1 14.0 23.0 0.00 0.00 0.00 33 998.8
20260504003708 70 1 12.0 19.0 0.00 0.00 0.00 33 998.9
20260504002808 71 1 13.0 23.0 0.00 0.00 0.00 31 999.3
20260504001908 72 1 16.0 25.0 0.00 0.00 0.00 30 999.4
20260504001008 72 1 14.0 24.0 0.00 0.00 0.00 30 999.6
20260504000108 72 1 15.0 24.0 0.00 0.00 0.00 30 999.7
20260503235508 71 1 14.0 24.0 0.00 0.00 0.00 30 999.9
20260503234608 70 1 14.0 24.0 0.00 0.00 0.00 30 1000.0
20260503233708 71 1 15.0 24.0 0.00 0.00 0.00 30 1000.3
20260503232829 71 1 16.0 27.0 0.00 0.00 0.00 31 1000.4
20260503231929 70 1 17.0 27.0 0.00 0.00 0.00 30 1000.7
20260503231008 71 1 17.0 28.0 0.00 0.00 0.00 30 1000.8
20260503230108 71 1 19.0 28.0 0.00 0.00 0.00 28 1000.7
20260503225508 72 1 18.0 28.0 0.00 0.00 0.00 28 1000.9
20260503224608 73 1 16.0 30.0 0.00 0.00 0.00 27 1001.0
20260503223708 73 1 17.0 30.0 0.00 0.00 0.00 30 1001.2
20260503222808 74 1 19.0 29.0 0.00 0.00 0.00 28 1001.4
20260503221908 74 1 19.0 29.0 0.00 0.00 0.00 26 1001.4
20260503221008 73 1 18.0 29.0 0.00 0.00 0.00 28 1001.6
20260503220108 72 1 17.0 33.0 0.00 0.00 0.00 30 1001.7
20260503215508 73 1 17.0 33.0 0.00 0.00 0.00 30 1001.7
20260503214608 73 1 20.0 33.0 0.00 0.00 0.00 28 1002.0
20260503213708 73 1 17.0 26.0 0.00 0.00 0.00 30 1002.1
20260503212829 73 1 16.0 31.0 0.00 0.00 0.00 32 1002.4
20260503211908 72 1 18.0 31.0 0.00 0.00 0.00 30 1002.7
20260503211008 73 1 19.0 31.0 0.00 0.00 0.00 30 1002.8
20260503210108 72 1 19.0 31.0 0.00 0.00 0.00 29 1003.1
20260503205529 72 1 18.0 28.0 0.00 0.00 0.00 29 1003.3
20260503204608 72 1 17.0 30.0 0.00 0.00 0.00 30 1003.7
20260503203708 72 1 19.0 30.0 0.00 0.00 0.00 29 1003.8
20260503202808 72 1 15.0 28.0 0.00 0.00 0.00 30 1003.9
20260503201908 71 1 19.0 31.0 0.00 0.00 0.00 29 1004.3
20260503201008 72 1 19.0 31.0 0.00 0.00 0.00 29 1004.5
20260503200108 71 1 17.0 28.0 0.00 0.00 0.00 31 1004.7
20260503195508 71 1 19.0 29.0 0.00 0.00 0.00 30 1004.8
20260503194608 71 1 16.0 25.0 0.00 0.00 0.00 32 1004.9
20260503193708 71 1 15.0 27.0 0.00 0.00 0.00 31 1005.2
20260503192808 70 1 17.0 28.0 0.00 0.00 0.00 32 1005.3
20260503191908 70 1 14.0 25.0 0.00 0.00 0.00 33 1005.5
20260503191008 69 1 18.0 25.0 0.00 0.00 0.00 31 1005.8
20260503190108 69 1 16.0 29.0 0.00 0.00 0.00 32 1006.0
20260503185508 69 1 17.0 26.0 0.00 0.00 0.00 32 1006.1
20260503184608 69 1 15.0 26.0 0.00 0.00 0.00 33 1006.4
20260503183708 69 1 14.0 26.0 0.00 0.00 0.00 34 1006.7
20260503182808 68 1 15.0 26.0 0.00 0.00 0.00 33 1006.9
20260503181908 68 1 13.0 26.0 0.00 0.00 0.00 35 1007.2
20260503181008 67 1 16.0 27.0 0.00 0.00 0.00 35 1007.5
20260503180107 67 1 15.0 27.0 0.00 0.00 0.00 34 1007.6
20260503175508 67 1 14.0 26.0 0.00 0.00 0.00 36 1007.9
20260503174607 66 1 14.0 23.0 0.00 0.00 0.00 34 1008.2
20260503173707 66 1 14.0 26.0 0.00 0.00 0.00 34 1008.3
20260503172829 66 1 12.0 19.0 0.00 0.00 0.00 39 1008.6
20260503171907 65 1 13.0 21.0 0.00 0.00 0.00 38 1008.8
20260503171007 65 267 11.0 21.0 0.00 0.00 0.00 38 1009.1
20260503170107 65 253 11.0 21.0 0.00 0.00 0.00 37 1009.1
20260503160107 62 221 10.0 20.0 0.00 0.00 0.00 41 1010.0
20260503150128 54 268 3.0 6.0 0.00 0.00 0.00 55 1010.7
20260503140107 47 268 3.0 6.0 0.00 0.00 0.00 61 1011.4
20260503131007 41 268 3.0 6.0 0.00 0.00 0.00 68 1011.6
20260503130107 39 268 3.0 6.0 0.00 0.00 0.00 68 1011.5
20260503120107 35 268 3.0 6.0 0.00 0.00 0.00 72 1011.5
20260503110107 37 268 3.0 6.0 0.00 0.00 0.00 69 1011.6
20260503100107 37 268 3.0 6.0 0.00 0.00 0.00 70 1011.9
20260503090107 38 268 3.0 6.0 0.00 0.00 0.00 69 1011.7
20260503081006 42 298 3.0 6.0 0.00 0.00 0.00 61 1011.6
20260503080106 43 315 4.0 7.0 0.00 0.00 0.00 60 1011.5
20260503072806 43 337 3.0 5.0 0.00 0.00 0.00 61 1011.7
20260503071906 43 318 3.0 6.0 0.00 0.00 0.00 61 1011.6
20260503071027 44 317 3.0 8.0 0.00 0.00 0.00 61 1011.6
20260503070127 45 327 4.0 9.0 0.00 0.00 0.00 60 1011.5
20260503060106 48 360 11.0 15.0 0.00 0.00 0.00 60 1011.3
20260503054606 49 359 11.0 17.0 0.00 0.00 0.00 60 1011.2
20260503053706 50 358 11.0 17.0 0.00 0.00 0.00 61 1011.2
20260503052806 50 360 10.0 17.0 0.00 0.00 0.00 61 1011.2
20260503051906 50 353 8.0 13.0 0.00 0.00 0.00 62 1011.1
20260503051027 50 350 8.0 12.0 0.00 0.00 0.00 62 1011.0
20260503050106 51 359 9.0 12.0 0.00 0.00 0.00 62 1010.9
20260503045506 51 359 9.0 12.0 0.00 0.00 0.00 61 1010.9
20260503044606 52 358 10.0 16.0 0.00 0.00 0.00 61 1010.9
20260503043706 52 358 10.0 16.0 0.00 0.00 0.00 61 1010.9
20260503042806 52 354 9.0 14.0 0.00 0.00 0.00 61 1010.7
20260503041906 53 357 8.0 12.0 0.00 0.00 0.00 60 1010.6
20260503041006 53 5 6.0 12.0 0.00 0.00 0.00 60 1010.6
20260503040127 53 336 6.0 10.0 0.00 0.00 0.00 60 1010.6
20260503035506 53 334 6.0 11.0 0.00 0.00 0.00 60 1010.6